Location: Bednik
(45.3500°N, 16.3833°E)
Time: 05:53:43
(UTC+00:00)

Cosmos 1805 Rocket - Pass Details

Date: 08 August 2020
Orbit: 605 x 631 km, 82.5° (Epoch: 26 September)

Event Time Altitude Azimuth Distance (km) Brightness Sun altitude
Rises 18:53:15 0° 171° (S) 2,887 6.6 -7.3°
Reaches altitude 10° 18:55:31 10° 166° (SSE) 1,990 5.7 -7.6°
Maximum altitude 18:59:44 46° 93° (E) 847 3.9 -8.2°
Drops below altitude 10° 19:04:00 10° 20° (NNE) 2,017 6.4 -8.9°
Sets 19:06:19 0° 15° (NNE) 2,932 7.3 -9.2°
